This is the latest recevied weather packets stored in our database for station/object DK4MDA-13. If no packets are shown the sender has not sent any weather packets the latest 10 day(s).
| Time | Temp. | Humidity | Pressure | Rain* | Wind** | Luminosity | Snow |
|---|---|---|---|---|---|---|---|
| 1777786932 | 15° C | 69% | 1013 hPa | 0 mm | - | - | - |
| 1777786632 | 14.44° C | 71% | 1013.1 hPa | 0 mm | - | - | - |
| 1777786332 | 13.89° C | 70% | 1013.1 hPa | 0 mm | - | - | - |
| 1777786032 | 13.89° C | 69% | 1013 hPa | 0 mm | - | - | - |
| 1777785732 | 13.33° C | 68% | 1013 hPa | 0 mm | - | - | - |
| 1777785432 | 13.33° C | 69% | 1013 hPa | 0 mm | - | - | - |
| 1777785132 | 12.78° C | 71% | 1013.1 hPa | 0 mm | - | - | - |
| 1777784832 | 12.78° C | 71% | 1013 hPa | 0 mm | - | - | - |
| 1777784532 | 12.22° C | 72% | 1013.1 hPa | 0 mm | - | - | - |
| 1777784232 | 11.67° C | 72% | 1013.3 hPa | 0 mm | - | - | - |
| 1777783932 | 11.67° C | 73% | 1013.2 hPa | 0 mm | - | - | - |
| 1777783632 | 11.11° C | 73% | 1013.3 hPa | 0 mm | - | - | - |
| 1777783332 | 11.11° C | 74% | 1013.2 hPa | 0 mm | - | - | - |
| 1777783032 | 11.11° C | 74% | 1013.2 hPa | 0 mm | - | - | - |
| 1777782732 | 10.56° C | 74% | 1013.2 hPa | 0 mm | - | - | - |
| 1777782432 | 10.56° C | 73% | 1013.1 hPa | 0 mm | - | - | - |
| 1777782132 | 11.11° C | 72% | 1013.3 hPa | 0 mm | - | - | - |
| 1777781832 | 11.11° C | 72% | 1013.2 hPa | 0 mm | - | - | - |
| 1777781532 | 11.11° C | 71% | 1013.2 hPa | 0 mm | - | - | - |
| 1777781232 | 11.11° C | 71% | 1013.3 hPa | 0 mm | - | - | - |
| 1777780932 | 11.11° C | 71% | 1013.3 hPa | 0 mm | - | - | - |
| 1777780632 | 11.11° C | 71% | 1013.2 hPa | 0 mm | - | - | - |
| 1777780332 | 11.11° C | 71% | 1013.4 hPa | 0 mm | - | - | - |
| 1777780032 | 11.11° C | 72% | 1013.3 hPa | 0 mm | - | - | - |
| 1777779732 | 10.56° C | 72% | 1013.3 hPa | 0 mm | - | - | - |
* Rain latest hour (hover to see other rain measurements)
** Current wind speed in m/s (hover to see current wind gust speed)